Kuchera_Ratio
0.0 0.0 0.0 0.0 0.0 0.0 0.0 0.0 0.0 0.0 0.0 0.0 0.0 0.0 0.0 0.0 0.0 0.0 0.0 0.0 0.0 0.0 0.0 0.0 0.0 0.0 0.0 0.0 0.0 0.0 0.0 0.0 0.0 0.0 0.0 0.0 0.0 0.0 0.9 1.8 3.7 3.7 3.5
0.0 0.0 0.0 0.0 0.0 0.0 0.0 0.0 0.0 0.0 0.0 0.0 0.0 0.0 0.0 0.0 0.0 0.0 0.0 0.0 0.0 0.0 0.0 0.0 0.0 0.0 0.0 0.0 0.0 0.0 0.0 0.0 0.0 0.0 0.0 1.1 0.4 0.6 1.7 3.1 4.3 5.4 5.3
0.0 0.0 0.0 0.0 0.0 0.0 0.0 0.0 0.0 0.0 0.0 0.0 0.0 0.0 0.0 0.0 0.0 0.0 0.0 0.0 0.0 0.0 0.0 0.0 0.0 0.0 0.0 0.0 0.0 0.0 0.0 0.1 1.0 1.6 4.1 4.9 5.1 4.5 2.0 4.0 5.0 6.5 7.1
0.0 0.0 0.0 0.0 0.0 0.0 0.0 0.0 0.0 0.0 0.0 0.0 0.0 0.0 0.0 0.0 0.0 0.0 0.0 0.0 0.0 0.0 0.0 0.0 0.0 0.0 0.0 0.0 0.0 0.0 0.0 1.1 2.4 3.4 4.5 6.6 8.1 9.2 6.8 5.2 7.4 7.1 7.4
0.0 0.0 0.0 0.0 0.0 0.0 0.0 0.0 0.0 0.0 0.0 0.0 0.0 0.0 0.0 0.0 0.0 0.0 0.0 0.0 0.0 0.0 0.0 0.0 0.0 0.0 0.0 0.0 0.0 0.4 1.3 2.7 4.0 4.8 6.1 7.8 9.2 10.8 10.3 7.6 8.3 8.8 8.4
0.0 0.0 0.0 0.0 0.0 0.0 0.0 0.0 0.0 0.0 0.0 0.0 0.0 0.0 0.0 0.0 0.0 0.0 0.0 0.0 0.0 0.0 0.0 0.0 0.3 0.7 0.7 0.0 0.5 1.2 2.5 3.9 4.8 5.9 7.4 9.2 10.5 11.4 12.3 11.0 10.8 10.3 12.1
0.0 0.0 0.0 0.0 0.0 0.0 0.0 0.0 0.0 0.0 0.0 0.0 0.0 0.0 0.0 0.0 0.0 0.0 0.0 0.0 0.0 0.0 0.0 0.0 0.7 1.2 1.0 0.7 1.9 2.3 3.7 4.6 6.0 7.2 8.8 10.5 11.8 12.3 13.0 13.2 12.8 12.6 12.4
0.0 0.0 0.0 0.0 0.0 0.0 0.0 0.0 0.0 0.0 0.0 0.0 0.0 0.0 0.0 0.0 0.0 0.0 0.0 0.0 0.0 0.0 0.0 0.5 1.4 1.8 1.6 2.1 2.5 3.1 4.9 5.6 7.0 8.9 10.1 11.5 12.6 12.4 12.5 13.4 14.1 13.2 13.3
0.0 0.0 0.0 0.0 0.0 0.0 0.0 0.0 0.0 0.0 0.0 0.0 0.0 0.0 0.0 0.0 0.0 0.0 0.0 0.0 0.0 0.0 0.1 1.5 2.4 2.6 2.5 2.8 3.3 4.6 5.7 6.9 8.5 9.9 10.9 12.2 13.0 12.8 13.0 13.2 13.7 15.4 14.2
0.0 0.0 0.0 0.0 0.0 0.0 0.0 0.0 0.0 0.0 0.0 0.0 0.0 0.0 0.0 0.0 0.0 0.0 0.0 0.0 0.0 0.1 1.3 2.5 2.9 3.3 3.5 4.0 4.4 5.5 6.7 7.9 9.4 10.9 12.1 12.7 13.1 13.3 13.2 12.8 13.3 13.6 15.0
0.0 0.0 0.0 0.0 0.0 0.0 0.0 0.0 0.0 0.0 0.0 0.0 0.0 0.0 0.0 0.0 0.0 0.0 0.0 0.0 0.0 1.1 2.0 3.3 3.9 3.8 4.3 4.3 5.5 6.8 7.8 8.6 10.1 12.3 12.5 13.2 13.0 13.5 13.3 13.1 11.9 12.3 12.6
0.0 0.0 0.0 0.0 0.0 0.0 0.0 0.0 0.0 0.0 0.0 0.0 0.0 0.0 0.0 0.0 0.0 0.0 0.0 0.0 1.0 2.5 3.6 4.1 4.0 4.4 4.7 5.7 7.1 7.9 8.5 9.7 11.0 12.6 13.1 13.2 10.2 13.3 13.2 13.2 11.5 10.0 9.8
0.0 0.0 0.0 0.0 0.0 0.0 0.0 0.0 0.0 0.0 0.0 0.0 0.0 0.0 0.0 0.0 0.0 0.0 0.3 1.7 2.9 3.8 4.3 4.3 4.5 5.2 6.0 7.3 8.0 8.6 9.9 11.4 12.2 12.8 12.9 12.7 13.1 13.7 13.1 13.0 12.2 10.8 9.6
0.0 0.0 0.0 0.0 0.0 0.0 0.0 0.0 0.0 0.0 0.0 0.0 0.0 0.0 0.0 0.0 0.0 0.3 1.9 3.0 4.4 5.0 5.0 5.0 5.9 6.7 7.4 8.2 8.9 10.0 11.1 12.1 12.3 12.1 12.3 12.4 12.8 13.2 12.1 11.2 11.1 9.3 10.1
0.0 0.0 0.0 0.0 0.0 0.0 0.0 0.0 0.0 0.0 0.0 0.0 0.0 0.0 0.0 0.0 0.6 2.5 3.6 4.8 5.3 5.3 5.6 6.5 7.1 7.6 8.4 9.3 10.2 11.3 12.1 11.8 11.5 11.5 11.6 10.5 8.9 3.9 3.1 4.7 6.6 7.5 9.2
0.0 0.0 0.0 0.0 0.0 0.0 0.0 0.0 0.0 0.0 0.0 0.0 0.0 0.0 0.3 1.5 2.8 4.1 5.0 5.8 6.1 6.4 7.3 7.6 8.1 8.6 9.4 6.7 4.3 4.6 10.1 9.5 10.2 12.1 11.9 10.6 6.7 7.9 3.3 1.6 1.6 2.3 7.2
0.0 0.0 0.0 0.0 0.0 0.0 0.0 0.0 0.0 0.0 0.0 0.4 0.3 0.4 1.6 2.8 4.0 5.0 6.5 6.7 7.6 8.0 8.3 9.0 9.3 10.1 11.7 7.2 3.8 2.0 9.4 10.0 11.3 11.3 10.5 9.5 7.6 6.4 9.8 6.9 3.6 3.4 1.6
0.0 0.0 0.0 0.0 0.0 0.0 0.0 0.0 0.0 0.0 0.0 1.7 1.2 1.9 2.8 4.1 5.7 7.0 7.9 8.9 8.9 9.2 10.0 10.7 11.2 12.4 12.5 6.5 4.7 2.9 9.5 10.9 11.4 10.8 11.6 12.1 11.8 10.1 6.0 5.4 8.1 7.7 7.6
0.0 0.0 0.0 0.0 0.0 0.0 0.0 0.0 0.0 0.0 2.7 2.3 2.4 3.1 3.9 5.1 6.9 8.9 10.0 10.1 9.9 11.0 12.3 11.8 12.8 13.2 13.3 8.2 5.7 4.8 9.8 10.6 11.3 9.7 10.7 11.4 9.9 4.8 0.8 5.3 9.2 9.5 9.4
0.0 0.0 0.0 0.0 0.0 0.0 0.0 0.0 0.0 2.4 3.6 3.4 3.7 4.1 5.2 6.8 8.9 10.6 10.4 10.7 12.4 12.4 10.5 11.7 13.6 12.4 13.8 9.9 6.0 4.1 8.4 10.3 11.4 10.3 9.3 5.3 5.4 1.7 1.1 6.5 10.2 12.9 12.6
0.0 0.0 0.0 0.0 0.0 0.0 0.0 0.9 3.2 4.4 4.3 4.6 5.6 7.2 9.1 10.3 11.4 11.4 12.4 12.9 12.8 12.7 13.6 13.5 13.9 13.9 13.3 13.5 5.5 3.2 7.4 8.8 10.3 11.3 10.7 9.0 4.4 2.4 3.2 3.6 10.8 11.7 6.7
3.7 1.2 0.8 1.1 1.1 2.0 3.4 4.8 5.8 5.0 5.4 6.6 7.9 9.3 10.6 11.3 12.1 13.1 13.7 13.3 13.8 14.2 14.5 14.8 14.5 13.6 13.4 8.8 7.4 3.2 2.8 2.7 9.1 11.2 10.1 9.2 4.9 5.4 5.8 7.5 6.1 5.6 7.3
6.6 5.2 3.9 4.5 5.8 7.2 5.3 7.1 6.1 6.0 6.9 8.7 10.6 11.8 12.4 12.5 12.8 13.9 13.9 14.4 14.5 15.0 15.3 13.8 15.6 15.2 12.3 12.8 7.2 5.0 3.1 4.6 9.1 10.0 7.2 7.2 7.8 8.2 10.3 8.6 7.7 8.3 13.2
9.0 9.2 7.9 7.6 10.0 10.1 10.1 10.3 7.5 7.5 9.5 11.8 12.6 13.2 13.8 14.0 13.7 12.9 12.9 14.1 14.9 15.6 14.7 14.9 15.9 15.1 14.4 13.3 12.2 11.1 12.4 8.0 8.8 10.3 13.1 10.7 10.5 10.4 11.1 12.5 12.7 13.0 13.2
12.0 10.7 10.4 10.8 12.3 12.4 12.3 12.3 11.9 12.1 12.1 12.9 13.2 13.8 13.4 14.3 14.3 13.2 13.6 13.9 14.6 14.1 14.7 14.7 14.6 15.1 15.1 12.3 5.9 6.5 9.3 12.2 9.1 12.7 15.2 15.7 15.3 15.5 15.1 14.6 14.1 13.7 13.4
13.6 12.7 10.5 11.6 12.8 13.0 12.9 12.9 12.7 12.9 13.8 14.6 14.2 14.6 14.8 14.6 14.3 14.5 14.1 7.9 8.5 6.9 7.1 6.7 13.0 13.6 7.0 5.2 5.2 5.5 6.8 7.4 7.5 16.3 17.6 17.0 16.5 16.2 15.9 15.6 15.3 14.4 13.7